• Join FlightAware (Why Join?)
  • Login
  • US Flag 
10:47AM EST


 

Airport Tracker/Info


-or-


 

Live Flight TrackerFlight Track Log ✈ SWA337 ✈ 18-Feb-2014 ✈ KMKE - KMSP

Flight Track Log - Related Links

Times and Time Zones

All times are in EST time to prevent confusion due to time zone crossing. See the SWA337 flight status page for this flight to view local times or setup timezone preferences in your user account.

Time Position Orientation Groundspeed Altitude Reporting Facility
EST Latitude Longitude Course Direction KTS MPH feet Rate Location/Type
05:58PM 42.9333 -87.9667 255° West 178 205 4,200  Level KMKE
05:59PM 42.9625 -88.0522 295° West 248 285 8,200 2,880 Climbing Chicago Center
06:00PM 43.0222 -88.1139 323° Northwest 265 305 11,300 2,940 Climbing Chicago Center
06:01PM 43.0836 -88.1992 315° West 311 358 14,300 3,420 Climbing Chicago Center
06:02PM 43.1553 -88.3242 308° West 341 392 18,400 3,720 Climbing Chicago Center
06:03PM 43.2161 -88.4306 308° West 352 405 22,000 2,940 Climbing Chicago Center
06:04PM 43.2772 -88.5369 308° West 350 403 24,500 2,100 Climbing Chicago Center
06:05PM 43.3436 -88.6506 309° West 371 427 26,400 1,800 Climbing Chicago Center
06:06PM 43.4128 -88.7731 308° West 394 453 28,300 2,280 Climbing Chicago Center
06:07PM 43.4803 -88.8914 308° West 394 453 31,200 1,740 Climbing Chicago Center
06:08PM 43.5453 -89.0064 308° West 385 443 32,000 360 Climbing Chicago Center
06:09PM 43.6106 -89.1219 308° West 383 441 32,000  Level Chicago Center
06:10PM 43.6881 -89.2603 308° West 380 437 32,000  Level Chicago Center
06:12PM 43.7533 -89.3750 308° West 380 437 32,000  Level Chicago Center
06:13PM 43.8189 -89.4911 308° West 381 438 32,000  Level Chicago Center
06:14PM 43.8850 -89.6100 308° West 387 445 32,000  Level Chicago Center
06:15PM 43.9472 -89.7314 305° West 388 447 32,000  Level Chicago Center
06:16PM 43.9944 -89.8603 297° West 379 436 32,000  Level Chicago Center
06:17PM 44.0544 -90.0178 298° West 382 440 32,000  Level Chicago Center
06:18PM 44.1033 -90.1486 298° West 382 440 32,000  Level Chicago Center
06:19PM 44.1528 -90.2803 298° West 384 442 32,000  Level Chicago Center
06:20PM 44.2044 -90.4233 297° West 382 440 32,000  Level Chicago Center
06:21PM 44.2528 -90.5528 298° West 381 438 32,000  Level Chicago Center
06:22PM 44.3008 -90.6833 297° West 381 438 32,000  Level Chicago Center
06:23PM 44.3489 -90.8147 297° West 381 438 32,000  Level Chicago Center
06:24PM 44.3953 -90.9439 297° West 379 436 32,000  Level Chicago Center
06:25PM 44.4511 -91.0983 297° West 375 432 32,000 -1,020 Level Chicago Center
06:26PM 44.4972 -91.2253 297° West 371 427 29,900 -2,160 Descending Chicago Center
06:27PM 44.5411 -91.3511 296° West 365 420 27,600 -2,160 Descending Chicago Center
06:28PM 44.5844 -91.4733 296° West 356 410 25,500 -2,160 Descending Chicago Center
06:29PM 44.6372 -91.6161 297° West 340 391 22,900 -2,100 Descending Minneapolis Center
06:30PM 44.6758 -91.7275 296° West 326 375 21,000 -1,920 Descending Minneapolis Center
06:31PM 44.7150 -91.8378 297° West 320 368 19,000 -2,100 Descending Minneapolis Center
06:32PM 44.7531 -91.9467 296° West 312 359 16,700 -2,100 Descending Minneapolis Center
06:33PM 44.7914 -92.0561 296° West 312 359 14,700 -2,160 Descending Minneapolis Center
06:34PM 44.8353 -92.1822 296° West 302 348 12,300 -2,100 Descending Minneapolis Center
06:35PM 44.8711 -92.2861 296° West 297 342 10,400 -1,260 Descending Minneapolis Center
06:36PM 44.8536 -92.3889 257° West 288 331 9,800 -960 Descending Minneapolis Center
06:37PM 44.8122 -92.4750 236° Southwest 269 310 8,500 -1,380 Descending Minneapolis Center
06:39PM 44.7806 -92.5633 243° Southwest 255 293 7,000 -780 Descending Minneapolis Center
06:40PM 44.7667 -92.6589 258° West 249 287 7,000 -360 Level Minneapolis Center
06:41PM 44.7494 -92.7728 258° West 249 287 6,300 -1,020 Descending Minneapolis Center
06:42PM 44.7350 -92.8689 258° West 251 289 5,000 -660 Descending Minneapolis Center
06:43PM 44.7631 -92.9478 297° West 232 267 5,000 -480 Level Minneapolis Center
06:44PM 44.7906 -93.0111 301° West 198 228 4,100 -1,020 Descending Minneapolis Center
06:45PM 44.8167 -93.0708 302° West 184 212 3,000 -1,020 Descending Minneapolis Center
06:46PM 44.8428 -93.1300 302° West 146 168 2,000 -840 Descending Minneapolis Center
06:47PM 44.8603 -93.1700 302° West 122 140 1,300 -720 Descending Minneapolis Center
06:49PM 44.8667 -93.2167 270° West  Level FlightAware Approximate
06:56PM 44.8820 -93.2218 270° West  Level Estimated